{"data":{"norad_id":67914,"epoch":"2026-05-25T02:54:02.486304Z","epoch_age_seconds":67759,"freshness":"FRESH","line1":"1 67914U 26036L   26145.12086211  .00012305  00000+0  45574-3 0  9991","line2":"2 67914  43.0035 173.4070 0000914 268.6691  91.4056 15.27594817 15413","mean_motion":15.27594817,"eccentricity":9.14e-5,"inclination_deg":43.0035,"raan_deg":173.407,"arg_perigee_deg":268.6691,"mean_anomaly_deg":91.4056,"bstar":0.00045574,"rev_number":1541,"period_min":94.265834367517,"perigee_km":482.37762061586,"apogee_km":483.63183732391,"semimajor_km":6861.1417289699,"source":"CELESTRAK","updated_at":"2026-05-25T13:38:21.739695Z"}}